Voltar ao catálogo

STARLINK-1020

AtivoComunicaçõesVLEO
NORAD 44725·PAYLOAD·🇺🇸 United States

Lançado Nov 11, 2019 de Cape Canaveral Space Force Station

Loading…

Próximas Passagens (próximas 24 horas)

TLE

AtualizadoSource: CelesTrak SupGP

Época: Sep 14, 2026, 20:15 UTC

1 44725C 19074N   26257.84423611  .00067634  00000+0  57054-3 0  2570
2 44725  53.1508  15.3161 0001850 358.2795  34.0273 15.69099164    16

Acompanhe STARLINK-1020 em tempo real com AllMySat

Download on the App Store